| time (UTC) | temp F | wind direction | speed MPH | gust MPH | rain 1hr in | rain 24hr in | rain mn in | humidity % | barometer mb |
| 20260507223207 | 63 | 207 | 14.0 | 23.0 | 0.00 | 0.00 | 0.00 | 23 | 945.5 |
| 20260507223004 | 63 | 256 | 14.0 | 24.0 | 0.00 | 0.00 | 0.00 | 23 | 945.6 |
| 20260507221557 | 63 | 268 | 13.0 | 29.0 | 0.00 | 0.00 | 0.00 | 23 | 945.7 |
| 20260507221501 | 63 | 227 | 14.0 | 29.0 | 0.00 | 0.00 | 0.00 | 24 | 945.7 |
| 20260507220044 | 63 | 228 | 12.0 | 23.0 | 0.00 | 0.00 | 0.00 | 21 | 945.9 |
| 20260507214523 | 63 | 275 | 14.0 | 29.0 | 0.00 | 0.00 | 0.00 | 22 | 946.1 |
| 20260507213139 | 63 | 275 | 17.0 | 26.0 | 0.00 | 0.00 | 0.00 | 24 | 946.1 |
| 20260507211540 | 62 | 240 | 15.0 | 30.0 | 0.00 | 0.00 | 0.00 | 27 | 946.3 |
| 20260507210046 | 61 | 254 | 18.0 | 33.0 | 0.00 | 0.00 | 0.00 | 31 | 946.5 |
| 20260507204540 | 59 | 232 | 18.0 | 28.0 | 0.00 | 0.00 | 0.00 | 31 | 946.6 |
| 20260507203032 | 59 | 223 | 18.0 | 26.0 | 0.00 | 0.00 | 0.00 | 36 | 946.6 |
| 20260507201619 | 60 | 266 | 17.0 | 26.0 | 0.00 | 0.00 | 0.00 | 33 | 946.6 |
| 20260507200051 | 60 | 247 | 18.0 | 29.0 | 0.00 | 0.00 | 0.00 | 36 | 946.7 |
| 20260507194511 | 60 | 261 | 16.0 | 28.0 | 0.00 | 0.00 | 0.00 | 31 | 946.6 |
| 20260507193057 | 61 | 223 | 16.0 | 26.0 | 0.00 | 0.00 | 0.00 | 31 | 946.6 |
| 20260507193004 | 61 | 220 | 16.0 | 27.0 | 0.00 | 0.00 | 0.00 | 31 | 946.6 |
| 20260507191600 | 61 | 216 | 16.0 | 26.0 | 0.00 | 0.00 | 0.00 | 31 | 946.8 |
| 20260507190053 | 60 | 254 | 19.0 | 29.0 | 0.00 | 0.00 | 0.00 | 36 | 947.2 |
| 20260507184530 | 60 | 265 | 17.0 | 30.0 | 0.00 | 0.00 | 0.00 | 36 | 947.2 |
| 20260507183008 | 62 | 258 | 15.0 | 27.0 | 0.00 | 0.00 | 0.00 | 32 | 947.4 |
| 20260507181544 | 61 | 264 | 14.0 | 25.0 | 0.00 | 0.00 | 0.00 | 34 | 947.2 |
| 20260507180019 | 61 | 252 | 16.0 | 26.0 | 0.00 | 0.00 | 0.00 | 36 | 947.4 |
| 20260507174603 | 60 | 243 | 14.0 | 26.0 | 0.00 | 0.00 | 0.00 | 41 | 947.2 |
| 20260507173040 | 60 | 295 | 14.0 | 21.0 | 0.00 | 0.00 | 0.00 | 38 | 947.5 |
| 20260507171513 | 60 | 244 | 13.0 | 21.0 | 0.00 | 0.00 | 0.00 | 42 | 947.7 |
| 20260507170052 | 60 | 259 | 9.0 | 20.0 | 0.00 | 0.00 | 0.00 | 39 | 948.0 |
| 20260507164527 | 59 | 196 | 9.0 | 12.0 | 0.00 | 0.00 | 0.00 | 37 | 948.1 |
| 20260507163008 | 57 | 123 | 5.0 | 11.0 | 0.00 | 0.00 | 0.00 | 38 | 948.3 |
| 20260507161550 | 57 | 182 | 5.0 | 11.0 | 0.00 | 0.00 | 0.00 | 39 | 948.4 |
| 20260507160022 | 56 | 188 | 5.0 | 13.0 | 0.00 | 0.00 | 0.00 | 37 | 948.5 |
| 20260507154556 | 54 | 135 | 8.0 | 13.0 | 0.00 | 0.00 | 0.00 | 40 | 948.8 |
| 20260507154504 | 54 | 125 | 8.0 | 13.0 | 0.00 | 0.00 | 0.00 | 41 | 948.8 |
| 20260507153036 | 54 | 140 | 6.0 | 13.0 | 0.00 | 0.00 | 0.00 | 41 | 948.9 |
| 20260507151514 | 53 | 131 | 9.0 | 14.0 | 0.00 | 0.00 | 0.00 | 39 | 949.0 |
| 20260507150052 | 51 | 111 | 12.0 | 17.0 | 0.00 | 0.00 | 0.00 | 40 | 949.0 |
| 20260507144535 | 50 | 85 | 9.0 | 18.0 | 0.00 | 0.00 | 0.00 | 41 | 949.2 |
| 20260507143027 | 49 | 96 | 11.0 | 19.0 | 0.00 | 0.00 | 0.00 | 40 | 949.2 |
| 20260507141527 | 49 | 99 | 10.0 | 16.0 | 0.00 | 0.00 | 0.00 | 41 | 949.1 |
| 20260507140036 | 47 | 96 | 11.0 | 18.0 | 0.00 | 0.00 | 0.00 | 44 | 949.1 |
| 20260507134531 | 47 | 130 | 9.0 | 16.0 | 0.00 | 0.00 | 0.00 | 43 | 949.1 |
| 20260507133031 | 47 | 98 | 9.0 | 17.0 | 0.00 | 0.00 | 0.00 | 43 | 949.1 |
| 20260507131533 | 47 | 117 | 12.0 | 19.0 | 0.00 | 0.00 | 0.00 | 43 | 948.9 |
| 20260507130054 | 47 | 111 | 14.0 | 23.0 | 0.00 | 0.00 | 0.00 | 43 | 948.8 |
| 20260507124545 | 47 | 109 | 12.0 | 20.0 | 0.00 | 0.00 | 0.00 | 44 | 948.8 |
| 20260507123040 | 47 | 131 | 14.0 | 20.0 | 0.00 | 0.00 | 0.00 | 44 | 948.8 |
| 20260507121538 | 47 | 150 | 13.0 | 21.0 | 0.00 | 0.00 | 0.00 | 43 | 949.0 |
| 20260507120037 | 47 | 94 | 16.0 | 24.0 | 0.00 | 0.00 | 0.00 | 42 | 949.0 |
| 20260507114527 | 47 | 101 | 13.0 | 18.0 | 0.00 | 0.00 | 0.00 | 42 | 949.2 |
| 20260507113027 | 47 | 109 | 12.0 | 19.0 | 0.00 | 0.00 | 0.00 | 42 | 949.3 |
| 20260507111517 | 47 | 121 | 9.0 | 20.0 | 0.00 | 0.00 | 0.00 | 42 | 949.6 |
| 20260507110054 | 47 | 86 | 13.0 | 20.0 | 0.00 | 0.00 | 0.00 | 41 | 949.7 |
| 20260507104529 | 47 | 121 | 11.0 | 18.0 | 0.00 | 0.00 | 0.00 | 41 | 949.9 |
| 20260507103009 | 47 | 91 | 10.0 | 17.0 | 0.00 | 0.00 | 0.00 | 41 | 949.9 |
| 20260507101556 | 47 | 59 | 4.0 | 9.0 | 0.00 | 0.00 | 0.00 | 42 | 950.2 |
| 20260507100034 | 46 | 88 | 6.0 | 13.0 | 0.00 | 0.00 | 0.00 | 42 | 950.1 |
| 20260507094557 | 46 | 98 | 7.0 | 12.0 | 0.00 | 0.00 | 0.00 | 42 | 950.1 |
| 20260507094505 | 46 | 80 | 7.0 | 12.0 | 0.00 | 0.00 | 0.00 | 42 | 950.1 |
| 20260507093037 | 47 | 207 | 2.0 | 16.0 | 0.00 | 0.00 | 0.00 | 42 | 950.4 |
| 20260507091519 | 45 | 74 | 5.0 | 11.0 | 0.00 | 0.00 | 0.00 | 46 | 950.4 |
| 20260507090051 | 45 | 57 | 3.0 | 6.0 | 0.00 | 0.00 | 0.00 | 46 | 950.7 |
| 20260507084531 | 45 | 355 | 1.0 | 6.0 | 0.00 | 0.00 | 0.00 | 46 | 950.7 |
| 20260507083010 | 46 | 29 | 4.0 | 9.0 | 0.00 | 0.00 | 0.00 | 45 | 950.7 |
| 20260507081556 | 46 | 46 | 1.0 | 5.0 | 0.00 | 0.00 | 0.00 | 45 | 950.7 |
| 20260507080021 | 46 | 26 | 0.0 | 9.0 | 0.00 | 0.00 | 0.00 | 45 | 950.8 |
| 20260507074618 | 47 | 82 | 4.0 | 12.0 | 0.00 | 0.00 | 0.00 | 43 | 950.7 |
| 20260507074504 | 47 | 76 | 1.0 | 11.0 | 0.00 | 0.00 | 0.00 | 44 | 950.8 |
| 20260507073051 | 47 | 59 | 5.0 | 13.0 | 0.00 | 0.00 | 0.00 | 42 | 950.9 |
| 20260507071513 | 47 | 107 | 9.0 | 16.0 | 0.00 | 0.00 | 0.00 | 42 | 950.8 |
| 20260507070051 | 48 | 149 | 6.0 | 16.0 | 0.00 | 0.00 | 0.00 | 42 | 951.0 |
| 20260507064535 | 48 | 125 | 9.0 | 18.0 | 0.00 | 0.00 | 0.00 | 42 | 950.8 |
| 20260507063008 | 48 | 132 | 11.0 | 19.0 | 0.00 | 0.00 | 0.00 | 42 | 951.0 |
| 20260507061543 | 48 | 98 | 10.0 | 18.0 | 0.00 | 0.00 | 0.00 | 42 | 951.0 |
| 20260507060033 | 49 | 126 | 7.0 | 13.0 | 0.00 | 0.00 | 0.00 | 44 | 951.2 |
| 20260507054538 | 50 | 118 | 7.0 | 12.0 | 0.00 | 0.00 | 0.00 | 44 | 951.0 |
| 20260507053029 | 51 | 138 | 8.0 | 12.0 | 0.00 | 0.00 | 0.00 | 42 | 951.1 |
| 20260507051509 | 53 | 160 | 5.0 | 11.0 | 0.00 | 0.00 | 0.00 | 40 | 951.4 |
| 20260507050042 | 54 | 199 | 7.0 | 11.0 | 0.00 | 0.00 | 0.00 | 39 | 951.6 |
| 20260507044533 | 55 | 147 | 5.0 | 10.0 | 0.00 | 0.00 | 0.00 | 39 | 951.7 |
| 20260507043056 | 55 | 203 | 9.0 | 21.0 | 0.00 | 0.00 | 0.00 | 38 | 951.9 |
| 20260507041543 | 55 | 181 | 9.0 | 17.0 | 0.00 | 0.00 | 0.00 | 38 | 951.9 |
| 20260507040013 | 55 | 204 | 12.0 | 18.0 | 0.00 | 0.00 | 0.00 | 38 | 951.8 |
| 20260507034550 | 54 | 219 | 11.0 | 19.0 | 0.00 | 0.00 | 0.00 | 38 | 951.7 |
| 20260507033032 | 54 | 194 | 9.0 | 20.0 | 0.00 | 0.00 | 0.00 | 39 | 951.7 |
| 20260507031506 | 53 | 192 | 7.0 | 12.0 | 0.00 | 0.00 | 0.00 | 39 | 951.7 |
| 20260507030045 | 54 | 210 | 5.0 | 16.0 | 0.00 | 0.00 | 0.00 | 39 | 951.7 |
| 20260507024520 | 54 | 232 | 9.0 | 15.0 | 0.00 | 0.00 | 0.00 | 38 | 951.8 |
| 20260507023058 | 53 | 214 | 7.0 | 13.0 | 0.00 | 0.00 | 0.00 | 39 | 951.9 |
| 20260507021534 | 54 | 231 | 6.0 | 15.0 | 0.00 | 0.00 | 0.00 | 37 | 951.8 |
| 20260507020014 | 55 | 199 | 8.0 | 16.0 | 0.00 | 0.00 | 0.00 | 35 | 951.9 |
| 20260507014604 | 56 | 242 | 11.0 | 21.0 | 0.00 | 0.00 | 0.00 | 33 | 952.0 |
| 20260507013048 | 57 | 234 | 12.0 | 23.0 | 0.00 | 0.00 | 0.00 | 32 | 952.0 |
| 20260507011540 | 57 | 250 | 10.0 | 19.0 | 0.00 | 0.00 | 0.00 | 32 | 952.0 |
| 20260507010040 | 58 | 257 | 11.0 | 21.0 | 0.00 | 0.00 | 0.00 | 31 | 951.8 |
| 20260507004539 | 58 | 255 | 13.0 | 18.0 | 0.00 | 0.00 | 0.00 | 30 | 951.9 |
| 20260507003036 | 59 | 250 | 11.0 | 16.0 | 0.00 | 0.00 | 0.00 | 29 | 952.1 |
| 20260507001538 | 58 | 291 | 9.0 | 17.0 | 0.00 | 0.00 | 0.00 | 29 | 952.3 |
| 20260507000044 | 58 | 271 | 12.0 | 19.0 | 0.00 | 0.00 | 0.00 | 29 | 952.2 |
| 20260506234545 | 58 | 254 | 13.0 | 20.0 | 0.00 | 0.00 | 0.00 | 27 | 952.2 |
| 20260506233042 | 58 | 263 | 10.0 | 19.0 | 0.00 | 0.00 | 0.00 | 28 | 952.3 |
| 20260506231547 | 58 | 207 | 9.0 | 18.0 | 0.00 | 0.00 | 0.00 | 28 | 952.2 |
| 20260506230052 | 58 | 263 | 11.0 | 19.0 | 0.00 | 0.00 | 0.00 | 27 | 952.3 |
| 20260506224539 | 58 | 248 | 6.0 | 17.0 | 0.00 | 0.00 | 0.00 | 28 | 952.6 |